Location: Newark
(40.7360°N, 74.1730°W)
Time: 07:47:47
(UTC-04:00)

ISS - All Passes

Search period start: 25 March 2017 00:00
Search period end: 04 April 2017 00:00
Orbit: 399 x 409 km, 51.6° (Epoch: 25 March)

Date Brightness Start Highest point End Pass type
(mag) Time Alt. Az. Time Alt. Az. Time Alt. Az.
25 Mar - 00:40:52 10° NW 00:42:31 13° N 00:44:10 10° NNE night (unlit)
25 Mar - 02:17:54 10° NNW 02:20:01 16° NNE 02:22:10 10° NE night (unlit)
25 Mar - 03:53:48 10° NW 03:57:03 56° NNE 04:00:18 10° ESE night (unlit)
25 Mar - 05:31:06 10° W 05:33:13 16° SW 05:35:21 10° S visible
25 Mar - 20:34:08 10° S 20:36:30 19° SE 20:38:53 10° E visible
25 Mar - 22:09:35 10° WSW 22:12:44 47° NNW 22:15:56 10° NE night (unlit)
25 Mar - 23:47:50 10° NW 23:49:49 15° NNW 23:51:49 10° NNE night (unlit)
26 Mar - 01:25:37 10° NNW 01:27:21 13° N 01:29:05 10° NE night (unlit)
26 Mar - 03:01:32 10° NW 03:04:35 33° NNE 03:07:37 10° E night (unlit)
26 Mar - 04:38:04 10° WNW 04:41:01 30° SW 04:43:57 10° SSE night (unlit)
26 Mar - 21:17:03 10° SW 21:20:19 88° NNW 21:23:35 10° NE visible
26 Mar - 22:54:45 10° WNW 22:57:10 19° NNW 22:59:35 10° NNE night (unlit)
27 Mar - 00:33:08 10° NNW 00:34:38 12° N 00:36:08 10° NNE night (unlit)
27 Mar - 02:09:19 10° NNW 02:12:01 23° NNE 02:14:42 10° ENE night (unlit)
27 Mar - 03:45:27 10° WNW 03:48:43 61° SW 03:51:58 10° SE night (unlit)
27 Mar - 20:24:50 10° SSW 20:27:57 45° SE 20:31:07 10° ENE visible
27 Mar - 22:01:45 10° W 22:04:33 26° NNW 22:07:22 10° NE visible
27 Mar - 23:40:21 10° NNW 23:41:53 13° N 23:43:26 10° NNE night (unlit)
28 Mar - 01:17:06 10° NNW 01:19:23 17° NNE 01:21:39 10° ENE night (unlit)
28 Mar - 02:53:02 10° NW 02:56:19 69° NE 02:59:36 10° ESE night (unlit)
28 Mar - 04:30:49 10° W 04:32:24 13° SW 04:33:58 10° SSW night (unlit)
28 Mar - 19:33:02 10° S 19:35:40 23° SE 19:38:20 10° E daylight
28 Mar - 21:08:54 10° WSW 21:11:59 39° NNW 21:15:07 10° NE visible
28 Mar - 22:47:17 10° NW 22:49:09 14° N 22:51:00 10° NNE visible
29 Mar - 00:24:50 10° NNW 00:26:41 14° N 00:28:31 10° NE night (unlit)
29 Mar - 02:00:42 10° NW 02:03:50 39° NNE 02:06:57 10° E night (unlit)
29 Mar - 03:37:26 10° WNW 03:40:10 24° SW 03:42:55 10° S night (unlit)
29 Mar - 18:42:05 10° SSE 18:43:28 12° SE 18:44:50 10° ESE daylight
29 Mar - 20:16:16 10° WSW 20:19:31 71° NW 20:22:46 10° NE visible
29 Mar - 21:54:10 10° WNW 21:56:26 17° NNW 21:58:43 10° NNE visible
29 Mar - 23:32:23 10° NNW 23:33:56 13° N 23:35:27 10° NNE night (unlit)
30 Mar - 01:08:27 10° NW 01:11:16 25° NNE 01:14:04 10° E night (unlit)
30 Mar - 02:44:40 10° WNW 02:47:52 48° SW 02:51:03 10° SE night (unlit)
30 Mar - 19:23:54 10° SW 19:27:06 58° SE 19:30:18 10° ENE daylight
30 Mar - 21:01:06 10° WNW 21:03:45 23° NNW 21:06:27 10° NNE visible
30 Mar - 22:39:39 10° NNW 22:41:09 12° N 22:42:38 10° NNE visible
31 Mar - 00:16:11 10° NNW 00:18:36 19° NNE 00:21:01 10° ENE night (unlit)
31 Mar - 01:52:10 10° NW 01:55:28 86° NE 01:58:46 10° SE night (unlit)
31 Mar - 03:31:01 10° WSW 03:31:27 10° SW 03:31:52 10° SW night (unlit)
31 Mar - 18:31:53 10° SSW 18:34:44 29° SE 18:37:36 10° ENE daylight
31 Mar - 20:08:08 10° W 20:11:09 33° NNW 20:14:10 10° NE visible
31 Mar - 21:46:38 10° NW 21:48:22 13° N 21:50:05 10° NNE visible
31 Mar - 23:23:55 10° NNW 23:25:53 15° NNE 23:27:52 10° NE night (unlit)
01 Apr - 00:59:47 10° NW 01:02:58 46° NNE 01:06:09 10° ESE night (unlit)
01 Apr - 02:36:45 10° W 02:39:13 20° SW 02:41:41 10° S night (unlit)
01 Apr - 17:40:30 10° SSE 17:42:27 15° SE 17:44:26 10° E daylight
01 Apr - 19:15:23 10° WSW 19:18:36 58° NNW 19:21:49 10° NE daylight
01 Apr - 20:53:29 10° NW 20:55:35 16° NNW 20:57:43 10° NNE visible
01 Apr - 22:31:30 10° NNW 22:33:06 13° N 22:34:43 10° NE visible
02 Apr - 00:07:27 10° NW 00:10:23 29° NNE 00:13:18 10° E night (unlit)
02 Apr - 01:43:49 10° WNW 01:46:54 38° SW 01:49:58 10° SSE night (unlit)
02 Apr - 18:22:53 10° SW 18:26:06 74° SE 18:29:22 10° ENE daylight
02 Apr - 20:00:20 10° WNW 20:02:52 20° NNW 20:05:25 10° NNE visible
02 Apr - 21:38:50 10° NNW 21:40:17 12° N 21:41:44 10° NNE visible
02 Apr - 23:15:10 10° NNW 23:17:43 20° NNE 23:20:15 10° ENE visible
03 Apr - 00:51:12 10° NW 00:54:29 77° SW 00:57:45 10° SE night (unlit)
03 Apr - 17:30:42 10° SSW 17:33:42 36° SE 17:36:43 10° ENE daylight
03 Apr - 19:07:17 10° W 19:10:11 29° NNW 19:13:06 10° NE daylight
03 Apr - 20:45:52 10° NW 20:47:28 13° N 20:49:04 10° NNE visible
03 Apr - 22:22:52 10° NNW 22:24:57 16° NNE 22:27:04 10° NE visible
